Sioux Falls, SD

4:02 PM CDT on August 21, 2019 (GMT -0500)
Foss

Weather History for KFSD - July, 2019

Change the Weather History Date:

Thursday, July 18, 2019

  Actual Average Record
Temperature  
Mean Temperature 81 °F 73 °F  
Max Temperature 92 °F 84 °F 105 °F (1940)
Min Temperature 70 °F 62 °F 50 °F (1893)
Degree Days  
Heating Degree Days 0 0  
Month to date heating degree days 0 0  
Since 1 June heating degree days 20 51  
Since 1 July heating degree days 0 0  
Cooling Degree Days 16 9  
Month to date cooling degree days 225 149  
Year to date cooling degree days 429 320  
Since 1 June cooling degree days 414 284  
Growing Degree Days 30 (Base 50)    
Moisture  
Dew Point 74 °F    
Average Humidity 80    
Maximum Humidity 100    
Minimum Humidity 60    
Precipitation  
Precipitation 0.01 in 0.09 in 1.61 in (1915)
Month to date precipitation 5.49 1.81  
Year to date precipitation 25.92 15.06  
Snow  
Snow 0.00 in 0.00 in 0.00 in ()
Month to date snowfall 0.0 0.0  
Since 1 June snowfall T 0.0  
Since 1 July snowfall 0.0 0.0  
Snow Depth 0.00 in    
Sea Level Pressure  
Sea Level Pressure 29.66 in    
Wind  
Wind Speed 7 mph (SSE)    
Max Wind Speed 18 mph    
Max Gust Speed 26 mph    
Visibility 10 miles    
Events Thunderstorm    
T = Trace of Precipitation, MM = Missing Value Source: NWS Daily Summary

Daily Weather History Graph

Daily Weather History Graph

Search for Another Location

Airport or City:

Astronomy

Jul. 18, 2019 Rise Set
Actual Time 6:02 AM CDT 9:03 PM CDT
Civil Twilight 5:27 AM CDT 9:38 PM CDT
Nautical Twilight 4:43 AM CDT 10:21 PM CDT
Astronomical Twilight 3:51 AM CDT 11:13 PM CDT
Moon 10:27 PM CDT (7/18) 7:33 AM CDT (7/18)
Length of Visible Light 16h 10m
Length of Day
15h 01m
Full, 97% of the Moon is Illuminated
Jul 18
Full
Jul 24
Last Quarter
Jul 31
New
Aug 7
First Quarter
Aug 15
Full

Hourly Weather History & Observations

Time (CDT) Temp. Heat Index Dew Point Humidity Pressure Visibility Wind Dir Wind Speed Gust Speed Precip Events Conditions
12:56 AM 75.9 °F - 70.0 °F 82% 29.72 in 10.0 mi SE 6.9 mph - N/A   Mostly Cloudy
1:56 AM 73.9 °F - 70.0 °F 87% 29.70 in 10.0 mi NW 3.5 mph - N/A   Clear
2:56 AM 73.0 °F - 70.0 °F 90% 29.68 in 10.0 mi Calm Calm - N/A   Clear
3:56 AM 71.1 °F - 69.1 °F 93% 29.66 in 10.0 mi NE 3.5 mph - N/A   Clear
4:56 AM 70.0 °F - 69.1 °F 97% 29.69 in 8.0 mi Calm Calm - N/A   Scattered Clouds
6:32 AM 73.0 °F - 70.0 °F 90% 29.69 in 9.0 mi SE 6.9 mph - N/A   Mostly Cloudy
6:56 AM 73.0 °F - 71.1 °F 93% 29.66 in 9.0 mi ESE 9.2 mph - N/A   Mostly Cloudy
7:45 AM 73.9 °F - 71.1 °F 91% 29.74 in 10.0 mi SSE 3.5 mph - N/A   Overcast
7:56 AM 75.0 °F - 71.1 °F 87% 29.70 in 10.0 mi SSE 9.2 mph - N/A   Mostly Cloudy
8:06 AM 75.0 °F - 70.0 °F 84% 29.73 in 10.0 mi SE 10.4 mph - N/A   Overcast
8:49 AM 75.0 °F - 71.1 °F 87% 29.75 in 10.0 mi SSE 4.6 mph - 0.01 in   Mostly Cloudy
8:56 AM 75.9 °F - 71.1 °F 85% 29.72 in 10.0 mi South 3.5 mph - 0.01 in   Mostly Cloudy
9:56 AM 81.0 °F 86.2 °F 73.9 °F 79% 29.70 in 10.0 mi NNE 9.2 mph - N/A   Scattered Clouds
10:56 AM 82.9 °F 90.2 °F 75.0 °F 77% 29.66 in 10.0 mi NE 11.5 mph - N/A   Scattered Clouds
11:56 AM 86.0 °F 96.0 °F 75.9 °F 72% 29.66 in 10.0 mi SE 8.1 mph - N/A   Partly Cloudy
12:56 PM 87.1 °F 97.3 °F 75.9 °F 69% 29.65 in 10.0 mi ESE 11.5 mph - N/A   Scattered Clouds
1:56 PM 88.0 °F 100.2 °F 77.0 °F 70% 29.64 in 10.0 mi SE 10.4 mph - N/A   Mostly Cloudy
2:56 PM 88.0 °F 98.5 °F 75.9 °F 67% 29.62 in 10.0 mi SSE 13.8 mph - N/A   Mostly Cloudy
3:56 PM 89.1 °F 103.2 °F 78.1 °F 70% 29.62 in 10.0 mi SE 11.5 mph - N/A   Overcast
4:52 PM 89.6 °F 104.7 °F 78.8 °F 70% 29.63 in 10.0 mi SSE 11.5 mph - N/A Thunderstorm Thunderstorm
4:56 PM 89.1 °F 101.4 °F 77.0 °F 67% 29.60 in 10.0 mi South 10.4 mph - N/A Thunderstorm Thunderstorm
5:16 PM 89.1 °F 99.1 °F 75.0 °F 63% 29.62 in 10.0 mi South 18.4 mph 25.3 mph N/A Thunderstorm Thunderstorm
5:38 PM 91.0 °F 101.6 °F 75.0 °F 59% 29.63 in 10.0 mi SSW 12.7 mph 24.2 mph N/A Thunderstorm Thunderstorm
5:54 PM 91.4 °F 102.5 °F 75.2 °F 59% 29.64 in 10.0 mi SSW 9.2 mph 21.9 mph N/A Thunderstorm Thunderstorm
5:56 PM 91.0 °F 102.9 °F 75.9 °F 61% 29.60 in 10.0 mi SSW 9.2 mph 18.4 mph N/A Thunderstorm Thunderstorm
6:13 PM 90.0 °F 101.3 °F 75.9 °F 63% 29.63 in 10.0 mi South 13.8 mph - N/A Thunderstorm Thunderstorm
6:28 PM 91.0 °F 104.2 °F 77.0 °F 63% 29.62 in 10.0 mi South 8.1 mph - N/A   Mostly Cloudy
6:56 PM 90.0 °F 100.2 °F 75.0 °F 61% 29.59 in 10.0 mi SW 9.2 mph - N/A   Mostly Cloudy
7:56 PM 89.1 °F 99.1 °F 75.0 °F 63% 29.59 in 10.0 mi SW 6.9 mph - N/A   Scattered Clouds
8:56 PM 82.0 °F 89.4 °F 75.9 °F 82% 29.62 in 10.0 mi NNE 8.1 mph - N/A   Scattered Clouds
9:56 PM 80.1 °F 85.4 °F 75.9 °F 87% 29.63 in 10.0 mi NNE 5.8 mph - N/A   Partly Cloudy
10:56 PM 79.0 °F - 75.9 °F 90% 29.64 in 10.0 mi North 4.6 mph - N/A   Partly Cloudy
11:56 PM 77.0 °F - 75.0 °F 94% 29.65 in 10.0 mi North 5.8 mph - N/A   Clear